Time,TemperatureF,DewpointF,PressureIn,WindDirection,WindDirectionDegrees,WindSpeedMPH,WindSpeedGustMPH,Humidity,HourlyPrecipIn,Conditions,Clouds,dailyrainin,SoftwareType,DateUTC
2013-05-16 00:01:00,73.9,53.5,29.86,South,180,3.4,3.4,49,0.00,,,0.00,WUHU21623XXSP,2013-05-16 04:01:00,
2013-05-16 00:06:00,73.9,53.5,29.86,South,180,0.0,3.4,49,0.00,,,0.00,WUHU21623XXSP,2013-05-16 04:06:00,
2013-05-16 00:11:00,73.9,53.5,29.86,West,270,0.0,0.0,49,0.00,,,0.00,WUHU21623XXSP,2013-05-16 04:11:00,
2013-05-16 00:16:00,73.9,53.5,29.86,SSE,157,0.0,0.0,49,0.00,,,0.00,WUHU21623XXSP,2013-05-16 04:16:00,
2013-05-16 00:21:00,73.9,53.5,29.86,SSW,202,0.0,2.9,49,0.00,,,0.00,WUHU21623XXSP,2013-05-16 04:21:00,
2013-05-16 00:26:00,73.8,53.3,29.86,South,180,4.5,4.5,49,0.00,,,0.00,WUHU21623XXSP,2013-05-16 04:26:00,
2013-05-16 00:31:00,73.8,53.3,29.86,SW,225,5.6,5.8,49,0.00,,,0.00,WUHU21623XXSP,2013-05-16 04:31:00,
2013-05-16 00:36:00,73.8,53.3,29.86,SSW,202,0.0,5.8,49,0.00,,,0.00,WUHU21623XXSP,2013-05-16 04:36:00,
2013-05-16 00:41:00,73.6,53.2,29.86,SW,225,0.0,1.8,49,0.00,,,0.00,WUHU21623XXSP,2013-05-16 04:41:00,
2013-05-16 00:46:00,73.4,53.0,29.86,South,180,3.8,3.8,49,0.00,,,0.00,WUHU21623XXSP,2013-05-16 04:46:00,
2013-05-16 00:51:00,73.2,52.8,29.86,SSW,202,0.0,3.8,49,0.00,,,0.00,WUHU21623XXSP,2013-05-16 04:51:00,
2013-05-16 00:56:00,73.2,52.8,29.86,SSW,202,2.0,2.0,49,0.00,,,0.00,WUHU21623XXSP,2013-05-16 04:56:00,
2013-05-16 01:01:00,73.2,52.8,29.85,SE,135,0.0,2.0,49,0.00,,,0.00,WUHU21623XXSP,2013-05-16 05:01:00,
2013-05-16 01:06:00,73.2,52.8,29.86,West,270,0.0,0.0,49,0.00,,,0.00,WUHU21623XXSP,2013-05-16 05:06:00,
2013-05-16 01:11:00,73.0,52.7,29.85,South,180,0.0,1.8,49,0.00,,,0.00,WUHU21623XXSP,2013-05-16 05:11:00,
2013-05-16 01:16:00,73.0,52.7,29.85,SW,225,0.0,1.8,49,0.00,,,0.00,WUHU21623XXSP,2013-05-16 05:16:00,
2013-05-16 01:21:00,72.9,52.5,29.85,SSW,202,0.0,0.0,49,0.00,,,0.00,WUHU21623XXSP,2013-05-16 05:21:00,
2013-05-16 01:26:00,72.7,52.4,29.85,SW,225,0.0,0.0,50,0.00,,,0.00,WUHU21623XXSP,2013-05-16 05:26:00,
2013-05-16 01:31:00,72.5,52.8,29.85,South,180,0.0,0.0,50,0.00,,,0.00,WUHU21623XXSP,2013-05-16 05:31:00,
2013-05-16 01:36:00,72.3,52.6,29.85,WSW,247,0.0,0.0,50,0.00,,,0.00,WUHU21623XXSP,2013-05-16 05:36:00,
2013-05-16 01:41:00,72.3,52.6,29.86,SW,225,3.4,5.4,50,0.00,,,0.00,WUHU21623XXSP,2013-05-16 05:41:00,
2013-05-16 01:46:00,72.1,52.5,29.86,SSW,202,0.0,5.4,50,0.00,,,0.00,WUHU21623XXSP,2013-05-16 05:46:00,
2013-05-16 01:51:00,72.1,52.5,29.85,SW,225,0.0,0.0,50,0.00,,,0.00,WUHU21623XXSP,2013-05-16 05:51:00,
2013-05-16 01:56:00,72.1,52.5,29.86,SW,225,0.0,0.0,51,0.00,,,0.00,WUHU21623XXSP,2013-05-16 05:56:00,
2013-05-16 02:01:00,72.1,53.0,29.86,SW,225,4.0,4.0,51,0.00,,,0.00,WUHU21623XXSP,2013-05-16 06:01:00,
2013-05-16 02:06:00,72.0,52.8,29.86,SW,225,1.3,4.0,51,0.00,,,0.00,WUHU21623XXSP,2013-05-16 06:06:00,
2013-05-16 02:11:00,72.0,52.8,29.86,South,180,0.0,1.3,51,0.00,,,0.00,WUHU21623XXSP,2013-05-16 06:11:00,
2013-05-16 02:16:00,71.8,52.6,29.85,SSW,202,0.0,0.0,51,0.00,,,0.00,WUHU21623XXSP,2013-05-16 06:16:00,
2013-05-16 02:21:00,71.8,52.6,29.85,WSW,247,0.0,0.0,51,0.00,,,0.00,WUHU21623XXSP,2013-05-16 06:21:00,
2013-05-16 02:26:00,71.8,52.6,29.85,SSE,157,0.0,1.6,51,0.00,,,0.00,WUHU21623XXSP,2013-05-16 06:26:00,
2013-05-16 02:31:00,71.8,52.6,29.85,SE,135,0.0,1.6,51,0.00,,,0.00,WUHU21623XXSP,2013-05-16 06:31:00,
2013-05-16 02:36:00,71.4,52.3,29.85,SW,225,2.0,2.7,51,0.00,,,0.00,WUHU21623XXSP,2013-05-16 06:36:00,
2013-05-16 02:41:00,71.4,52.8,29.85,SW,225,0.9,2.7,52,0.00,,,0.00,WUHU21623XXSP,2013-05-16 06:41:00,
2013-05-16 02:46:00,71.4,52.8,29.85,SSE,157,0.0,0.9,52,0.00,,,0.00,WUHU21623XXSP,2013-05-16 06:46:00,
2013-05-16 02:51:00,71.4,52.8,29.85,WSW,247,0.0,2.9,52,0.00,,,0.00,WUHU21623XXSP,2013-05-16 06:51:00,
2013-05-16 02:56:00,71.4,52.8,29.85,SSE,157,0.0,2.9,52,0.00,,,0.00,WUHU21623XXSP,2013-05-16 06:56:00,
2013-05-16 03:01:00,71.4,52.8,29.85,South,180,0.0,0.0,52,0.00,,,0.00,WUHU21623XXSP,2013-05-16 07:01:00,
2013-05-16 03:06:00,71.4,52.8,29.85,SW,225,0.0,0.0,52,0.00,,,0.00,WUHU21623XXSP,2013-05-16 07:06:00,
2013-05-16 03:11:00,71.4,52.8,29.85,SW,225,0.0,0.0,52,0.00,,,0.00,WUHU21623XXSP,2013-05-16 07:11:00,
2013-05-16 03:16:00,71.2,52.2,29.85,SSE,157,0.0,0.0,51,0.00,,,0.00,WUHU21623XXSP,2013-05-16 07:16:00,
2013-05-16 03:21:00,71.2,52.2,29.86,West,270,1.8,1.8,51,0.00,,,0.00,WUHU21623XXSP,2013-05-16 07:21:00,